Location: Burera
(21.3780°N, 81.9534°E)
Time: 00:36:26
(UTC+00:00)

Cosmos 1023 Rocket - Pass Details

Date: 13 August 2020
Orbit: 737 x 772 km, 74.1° (Epoch: 22 September)

Event Time Altitude Azimuth Distance (km) Brightness Sun altitude
Rises 13:56:47 0° 192° (SSW) 3,220 7.6 -12.5°
Reaches altitude 10° 13:59:09 10° 192° (SSW) 2,299 6.9 -13.0°
Maximum altitude 14:04:22 87° 107° (ESE) 774 4.5 -14.2°
Drops below altitude 10° 14:09:39 10° 15° (NNE) 2,313 7.1 -15.3°
Sets 14:12:01 0° 15° (NNE) 3,240 7.8 -15.8°
